SCP
2 2 2 1 1 1 1 1 1 1 1 1 1 1 1 1 1 0 0 0 0 0 0 0 0 0 0 0 0 0 0 0 0 0 0 0 0 0 0 0 0 0 0
2 2 2 2 1 1 1 1 1 1 1 1 1 1 1 1 1 0 0 0 0 0 0 0 0 0 0 0 0 0 0 0 0 0 0 0 0 0 0 0 0 0 0
1 2 2 2 2 1 1 1 1 1 1 1 1 1 1 1 1 1 1 0 0 0 0 0 0 0 0 0 0 0 0 0 0 0 0 0 0 0 0 0 0 0 0
1 1 2 2 2 1 1 1 1 2 2 1 1 2 2 2 1 1 1 1 1 1 1 1 1 0 0 0 0 0 0 0 0 0 0 0 0 0 0 0 0 0 0
1 1 2 2 2 2 2 2 2 2 2 2 2 2 2 2 2 1 1 1 0 0 1 1 1 1 0 0 0 1 1 1 1 1 1 0 0 0 0 0 0 0 0
1 1 1 1 2 2 2 2 2 3 3 3 3 2 2 2 2 2 1 1 1 0 0 1 1 1 1 1 1 1 1 1 1 1 1 1 1 1 1 1 0 0 0
1 1 1 1 1 2 2 3 2 2 3 4 4 3 3 3 3 2 2 1 1 0 0 1 1 1 1 1 1 1 1 1 1 1 1 1 1 1 1 1 1 1 0
2 2 2 2 2 2 2 2 2 2 2 3 4 4 4 3 3 3 2 2 1 1 1 1 1 1 1 1 1 1 1 1 1 1 1 1 1 1 2 2 2 1 1
2 2 2 2 2 2 2 2 2 2 2 3 4 4 4 4 4 4 3 2 2 1 1 1 1 1 1 1 1 1 1 2 2 2 1 1 1 2 2 2 2 2 2
2 2 2 2 2 2 2 2 2 2 2 2 3 4 5 5 5 5 4 3 2 2 1 1 1 1 1 1 1 1 2 2 2 2 1 1 2 2 2 2 3 3 3
3 3 3 3 3 2 2 2 2 2 2 2 3 4 4 5 5 5 5 4 3 2 2 2 2 1 1 2 2 2 2 2 2 2 2 2 2 2 2 3 3 4 4
4 4 4 3 3 2 2 2 1 2 2 2 3 3 4 5 5 5 5 5 4 3 2 2 2 2 2 2 3 3 3 3 2 2 2 2 2 2 3 3 4 5 5
5 4 4 4 4 3 2 2 2 2 2 2 2 3 4 5 6 6 6 6 5 4 4 3 3 3 3 3 4 4 4 3 3 2 2 2 3 3 4 4 5 5 5
4 4 5 5 5 5 4 4 4 3 2 2 2 3 4 5 6 7 7 7 6 5 4 4 3 3 3 4 4 5 5 4 3 2 2 3 3 4 4 5 5 5 6
4 4 4 5 6 6 5 5 5 5 4 3 3 3 4 5 7 8 9 8 7 6 5 5 5 5 4 4 5 5 5 4 2 2 2 2 3 4 4 4 4 5 5
3 4 4 4 5 6 6 6 7 7 6 5 4 4 5 7 8 10 10 10 8 7 7 6 6 6 6 5 5 4 4 3 2 2 2 2 2 2 2 2 2 3 3
4 4 4 4 4 5 6 7 9 9 8 7 7 6 6 8 9 10 10 9 8 8 8 8 7 7 6 5 3 3 2 2 2 2 2 2 1 1 1 1 1 1 1
4 4 3 3 3 3 5 7 10 11 10 9 8 6 7 9 10 10 9 7 6 7 8 8 7 7 5 3 2 1 1 1 1 1 1 1 1 1 1 1 1 1 1
3 3 3 3 2 3 4 7 10 12 11 10 8 8 10 12 11 9 6 4 5 6 6 6 5 4 3 2 1 1 1 1 1 1 1 1 1 1 1 1 2 2 2
3 3 3 2 2 2 4 6 8 10 11 11 10 10 11 12 11 7 4 3 3 4 4 3 3 2 1 1 1 1 1 2 2 1 1 1 1 1 1 1 2 2 2
3 3 3 3 2 3 3 4 5 7 8 8 8 7 7 7 6 4 3 2 2 3 3 2 2 1 1 1 1 1 2 2 2 2 2 1 1 1 1 1 2 2 2
3 3 4 4 3 3 4 4 4 4 5 4 4 3 3 2 3 3 3 2 2 2 3 2 2 2 2 2 2 1 1 2 3 3 3 2 1 1 1 1 1 1 1
3 4 4 4 4 4 4 4 3 3 3 2 2 1 1 2 3 3 3 3 2 3 3 2 2 2 2 2 2 2 1 1 3 4 3 2 1 1 1 1 1 1 1
3 4 4 4 4 3 3 3 2 2 2 1 1 1 1 2 3 3 3 2 3 3 3 2 2 2 2 3 3 2 2 1 2 3 3 2 1 1 1 1 1 1 1
2 3 3 3 3 2 2 2 2 1 1 1 1 1 1 2 3 3 3 2 2 2 2 2 2 2 2 2 2 2 2 2 2 2 3 3 3 2 2 2 2 2 2
2 2 2 2 2 2 2 2 2 1 1 1 1 1 1 1 3 4 3 2 2 2 2 2 2 1 2 2 2 2 2 2 2 2 3 4 4 4 3 3 3 3 2
Wind_Speed
7 6 7 7 7 6 6 6 6 5 4 2 2 2 1 1 1 1 2 3 3 3 3 2 2 2 2 1 1 1 2 1 1 1 2 2 1 1 0 1 1 1 1
5 6 7 7 8 8 7 7 7 6 5 4 3 2 2 1 1 1 1 2 3 3 3 3 2 3 2 2 2 2 1 1 1 1 1 2 3 2 2 1 1 1 1
9 8 8 8 8 9 9 8 7 7 6 5 3 2 2 1 1 0 1 1 3 3 3 3 3 3 3 3 2 3 3 2 1 1 2 1 1 2 2 1 1 1 1
8 8 8 8 9 9 8 7 7 6 6 6 5 5 4 3 3 2 1 1 2 3 3 3 4 4 3 3 3 3 2 2 1 1 1 1 2 1 1 2 1 1 1
10 10 11 10 9 8 8 7 7 6 6 6 6 5 4 3 2 1 1 1 1 2 2 3 3 3 3 3 3 2 3 2 2 2 1 1 1 1 2 2 2 2 1
9 9 9 7 7 7 7 7 7 7 7 7 7 7 6 5 3 3 2 2 1 1 2 3 3 3 3 3 3 3 3 3 3 2 2 2 2 2 2 2 2 2 2
8 7 8 8 8 8 8 8 8 8 7 7 7 7 7 6 6 5 4 3 2 2 3 3 3 3 3 3 3 3 3 3 3 3 3 3 3 2 2 2 2 2 2
7 8 8 8 8 8 8 8 8 8 7 8 7 6 6 5 4 5 4 5 4 4 3 4 4 3 3 3 3 2 3 3 3 3 3 2 3 3 3 3 2 1 2
6 6 5 5 6 7 8 8 8 7 7 8 7 6 7 6 6 5 5 4 4 4 4 4 4 4 4 4 3 3 3 3 3 3 3 3 3 3 3 3 3 3 2
2 3 4 4 6 6 6 6 7 8 7 7 7 7 7 7 6 5 6 6 5 4 4 5 4 4 4 4 4 4 3 3 3 3 3 3 3 3 3 3 3 3 3
2 3 3 4 5 5 5 6 6 6 6 6 6 6 6 6 6 6 6 6 5 5 6 6 5 5 5 5 4 4 4 5 4 4 4 4 3 3 3 3 3 3 3
2 3 3 3 4 4 4 4 5 5 6 6 6 6 6 6 7 7 7 6 6 6 6 6 6 6 5 5 5 5 5 5 5 5 4 4 3 3 3 3 3 3 3
1 2 2 3 3 3 3 3 4 5 5 5 6 6 6 7 8 8 6 6 6 6 6 6 6 6 5 5 6 6 5 6 6 5 5 4 4 4 3 3 3 3 3
1 1 2 2 3 3 3 3 3 3 4 4 5 6 7 7 7 6 6 6 6 6 6 6 6 6 6 5 5 5 5 5 4 4 4 4 5 5 5 4 4 3 2
1 0 1 2 2 2 2 2 3 3 3 4 5 6 6 6 5 6 6 6 6 7 6 6 5 5 5 5 5 5 5 4 3 3 3 4 5 6 5 4 4 3 2
0 0 1 1 2 3 3 2 3 3 3 4 5 5 5 5 6 5 5 5 6 5 5 6 6 6 5 5 7 5 4 4 4 4 3 3 3 4 5 5 5 5 5
1 1 1 2 3 3 3 3 3 2 2 3 4 4 5 5 6 6 5 5 5 5 5 5 5 5 5 6 7 7 5 4 4 4 3 3 2 2 2 2 2 3 4
1 2 2 2 3 2 2 2 1 2 2 3 3 3 4 4 4 4 4 4 3 3 3 4 4 4 4 5 5 6 4 4 3 3 3 3 2 2 2 2 1 1 1
2 2 2 2 1 2 2 1 1 1 2 2 3 3 3 3 3 4 4 3 2 3 3 3 3 3 3 5 5 5 3 2 2 2 2 3 3 3 3 2 2 1 1
0 1 1 1 1 2 1 1 1 1 2 3 2 2 3 3 3 4 3 2 2 3 3 2 3 4 3 4 6 6 3 3 2 1 1 2 3 2 3 3 3 2 2
0 0 1 1 1 1 1 1 1 2 3 2 1 1 2 3 4 3 3 3 3 3 2 2 2 3 3 4 5 6 4 4 3 2 2 1 2 2 3 3 2 2 1
1 0 0 1 1 0 1 1 2 2 1 0 0 0 1 2 2 2 2 3 3 3 3 2 2 1 1 2 3 4 4 4 4 3 2 2 3 3 3 2 2 2 2
1 1 1 0 1 1 1 2 2 1 0 1 0 0 0 0 1 2 3 2 2 2 2 2 2 1 1 1 2 3 4 4 3 2 3 3 4 4 3 3 3 3 2
1 1 0 0 1 1 0 1 1 1 1 1 0 0 0 1 1 1 2 2 2 2 2 2 2 1 1 1 1 2 2 3 2 2 3 4 5 4 3 3 2 1 1
1 0 1 1 1 1 1 0 1 1 1 1 1 1 1 1 2 2 1 1 2 3 4 3 3 3 2 2 4 3 2 2 3 3 2 2 2 2 1 1 1 1 1
1 1 1 1 1 1 1 1 1 2 2 1 1 1 1 1 2 2 2 3 1 1 2 3 3 2 3 3 4 4 4 5 6 5 3 2 2 2 2 2 1 1 1
Wind_Direction
197 186 186 179 175 182 182 186 187 183 162 148 154 157 177 184 182 194 188 180 181 174 167 170 150 144 149 159 140 112 90 64 71 64 16 3 16 16 306 251 232 240 236
185 189 187 185 184 186 186 187 189 184 178 176 165 161 153 167 179 188 176 180 181 182 180 168 166 160 156 153 150 137 130 114 92 103 71 7 354 356 6 353 202 222 231
195 192 190 193 193 191 188 192 192 187 183 170 141 115 88 74 97 151 206 194 183 187 182 175 170 170 172 182 182 165 162 163 145 123 136 146 245 322 333 340 333 318 280
197 194 190 192 197 198 188 185 188 188 181 168 165 166 172 183 196 190 195 193 182 190 190 183 180 179 178 184 195 176 169 159 176 181 184 179 166 176 310 325 326 319 303
194 196 198 198 196 194 188 184 181 186 182 178 180 181 188 191 178 164 181 210 219 213 204 193 187 186 187 194 195 173 176 179 184 184 174 164 156 181 200 275 307 323 299
199 199 199 191 190 191 185 182 183 194 189 185 186 188 190 185 178 184 196 218 224 227 214 198 193 193 190 195 196 188 188 196 195 190 178 173 185 192 190 228 271 293 300
194 194 195 192 192 191 189 186 188 197 194 190 192 195 196 190 194 197 200 206 216 223 221 212 199 199 199 196 191 189 200 199 194 200 206 202 211 187 176 190 239 273 294
194 197 197 197 194 192 189 187 191 197 194 193 197 195 192 193 202 204 203 207 213 218 212 203 205 206 199 195 186 196 207 197 205 216 211 213 221 202 192 186 186 250 289
194 197 194 191 189 190 192 191 191 195 197 197 194 195 195 198 205 203 202 210 212 214 205 203 206 209 202 193 184 204 216 207 216 222 215 222 228 217 214 203 192 191 248
171 176 181 187 189 189 188 186 188 195 199 198 202 206 204 205 206 202 205 208 212 211 202 206 208 211 210 203 196 205 213 212 225 221 218 226 227 217 211 208 209 206 211
168 170 173 176 170 172 180 188 191 192 194 198 202 207 206 204 202 206 212 212 211 206 210 211 208 209 212 209 201 211 209 215 224 225 220 229 220 214 214 208 207 210 204
170 162 158 154 156 162 178 198 198 201 204 198 199 207 206 202 207 213 215 208 212 212 211 210 210 213 213 207 206 216 216 214 219 222 217 226 217 216 217 212 215 216 211
95 115 138 154 167 179 191 207 209 215 210 198 200 205 207 209 214 217 215 207 208 211 209 206 212 215 212 207 210 212 214 215 217 214 212 220 210 223 223 216 217 218 216
69 110 169 189 193 198 202 223 227 222 217 209 205 209 214 217 221 219 214 210 208 210 209 208 213 212 210 208 206 205 209 212 215 214 215 217 215 222 220 218 216 208 206
62 153 208 218 223 225 223 223 230 222 217 214 214 219 217 216 218 217 214 210 208 213 211 208 212 208 205 208 201 199 200 202 209 216 223 227 221 222 221 217 209 201 205
188 226 248 251 248 241 236 235 238 232 218 220 224 222 215 212 211 213 212 208 209 211 206 205 205 208 213 201 195 194 200 198 201 213 230 235 224 226 223 218 210 201 203
281 265 256 255 258 257 245 232 235 236 229 232 227 220 213 211 211 211 211 214 213 209 204 204 198 205 211 197 194 195 196 200 204 208 217 230 225 216 214 208 211 221 222
257 286 288 289 288 280 275 262 229 204 216 227 223 219 214 214 213 206 210 217 210 198 199 202 200 200 210 192 195 198 192 190 196 201 206 211 223 220 186 185 208 251 266
246 253 253 254 271 262 245 229 236 222 225 236 232 216 204 200 198 202 204 202 188 192 196 192 185 190 207 188 184 179 185 191 204 212 208 205 213 211 165 162 189 233 284
227 275 320 342 321 288 217 173 242 250 258 258 251 230 193 180 188 195 194 191 182 196 188 185 183 186 196 181 174 172 179 185 200 207 214 210 208 197 173 173 180 207 251
355 72 62 344 307 312 111 169 242 258 267 269 244 218 187 180 190 190 190 178 168 169 174 184 195 186 184 183 176 174 181 184 186 196 206 212 181 168 173 173 182 213 215
354 37 61 323 322 324 149 192 248 269 291 306 282 271 228 205 192 169 177 174 164 165 175 182 203 213 188 186 179 171 176 177 178 191 196 181 146 134 137 148 135 123 113
234 227 193 225 309 271 181 201 267 282 111 72 38 341 319 228 166 163 160 157 159 167 178 178 194 223 202 164 160 162 166 167 171 175 157 145 131 123 120 120 122 122 118
260 276 143 114 311 305 263 204 222 218 155 131 113 133 140 149 122 131 143 152 170 176 180 182 193 198 181 174 163 156 152 152 153 148 122 114 104 103 101 96 95 114 132
259 257 245 239 275 294 337 76 177 155 139 142 142 131 124 122 108 96 101 170 201 197 190 195 186 181 195 204 181 167 168 168 158 133 112 101 105 109 103 102 110 131 141
204 181 244 266 292 313 319 298 232 169 150 147 144 135 128 122 127 116 67 47 66 99 172 182 183 193 196 182 174 172 171 160 146 127 132 150 164 170 175 181 183 176 192